"FRM_AIS_EDR_2231.DAT           ",2005-10-09T10:05:42.76 ,"1/0076932337.46296",    0,    0,   91631,"AIS","B1","B1","B1","B1","PISd",0,0,0,0,"B1", 0,15,   0, 0,    0,"AIS","N/A    ","OK ","OK ",    001176.249,    -083.100,    0001.329,    0002.778,    0074.263
"FRM_AIS_EDR_2231.DAT           ",2005-10-09T10:05:50.31 ,"1/0076932345.16359",    0,    1,   91631,"AIS","B1","B1","B1","B1","PISd",0,0,0,0,"B1", 0,15,   0, 0,    0,"AIS","N/A    ","OK ","OK ",    001165.871,    -083.384,    0002.697,    0002.871,    0073.945
"FRM_AIS_EDR_2231.DAT           ",2005-10-09T10:05:57.85 ,"1/0076932352.51958",    0,    2,   91631,"AIS","B1","B1","B1","B1","PISd",0,0,0,0,"B1", 0,15,   0, 0,    0,"AIS","N/A    ","OK ","OK ",    001155.524,    -083.665,    0004.197,    0002.973,    0073.624
"FRM_AIS_EDR_2231.DAT           ",2005-10-09T10:06:05.39 ,"1/0076932360.22022",    0,    3,   91631,"AIS","B1","B1","B1","B1","PISd",0,0,0,0,"B1", 0,15,   0, 0,    0,"AIS","N/A    ","OK ","OK ",    001145.208,    -083.942,    0005.845,    0003.085,    0073.303
"FRM_AIS_EDR_2231.DAT           ",2005-10-09T10:06:12.93 ,"1/0076932367.57621",    0,    4,   91631,"AIS","B1","B1","B1","B1","PISd",0,0,0,0,"B1", 0,15,   0, 0,    0,"AIS","N/A    ","OK ","OK ",    001134.924,    -084.215,    0007.660,    0003.208,    0072.980
"FRM_AIS_EDR_2231.DAT           ",2005-10-09T10:06:20.48 ,"1/0076932375.27684",    0,    5,   91631,"AIS","B1","B1","B1","B1","PISd",0,0,0,0,"B1", 0,15,   0, 0,    0,"AIS","N/A    ","OK ","OK ",    001124.673,    -084.483,    0009.665,    0003.344,    0072.655
"FRM_AIS_EDR_2231.DAT           ",2005-10-09T10:06:28.02 ,"1/0076932382.63284",    0,    6,   91631,"AIS","B1","B1","B1","B1","PISd",0,0,0,0,"B1", 0,15,   0, 0,    0,"AIS","N/A    ","OK ","OK ",    001114.454,    -084.744,    0011.884,    0003.494,    0072.329
"FRM_AIS_EDR_2231.DAT           ",2005-10-09T10:06:35.56 ,"1/0076932390.33347",    0,    7,   91631,"AIS","B1","B1","B1","B1","PISd",0,0,0,0,"B1", 0,15,   0, 0,    0,"AIS","N/A    ","OK ","OK ",    001104.268,    -084.997,    0014.346,    0003.660,    0072.002
"FRM_AIS_EDR_2231.DAT           ",2005-10-09T10:06:43.11 ,"1/0076932398.03411",    0,    8,   91631,"AIS","B1","B1","B1","B1","PISd",0,0,0,0,"B1", 0,15,   0, 0,    0,"AIS","N/A    ","OK ","OK ",    001094.117,    -085.241,    0017.080,    0003.844,    0071.673
"FRM_AIS_EDR_2231.DAT           ",2005-10-09T10:06:50.65 ,"1/0076932405.39010",    0,    9,   91631,"AIS","B1","B1","B1","B1","PISd",0,0,0,0,"B1", 0,15,   0, 0,    0,"AIS","N/A    ","OK ","OK ",    001083.999,    -085.474,    0020.119,    0004.049,    0071.343
"FRM_AIS_EDR_2231.DAT           ",2005-10-09T10:06:58.19 ,"1/0076932413.09073",    0,   10,   91631,"AIS","B1","B1","B1","B1","PISd",0,0,0,0,"B1", 0,15,   0, 0,    0,"AIS","N/A    ","OK ","OK ",    001073.917,    -085.694,    0023.496,    0004.276,    0071.011
"FRM_AIS_EDR_2231.DAT           ",2005-10-09T10:07:05.74 ,"1/0076932420.44673",    0,   11,   91631,"AIS","B1","B1","B1","B1","PISd",0,0,0,0,"B1", 0,15,   0, 0,    0,"AIS","N/A    ","OK ","OK ",    001063.870,    -085.898,    0027.241,    0004.528,    0070.677
"FRM_AIS_EDR_2231.DAT           ",2005-10-09T10:07:13.28 ,"1/0076932428.14736",    0,   12,   91631,"AIS","B1","B1","B1","B1","PISd",0,0,0,0,"B1", 0,15,   0, 0,    0,"AIS","N/A    ","OK ","OK ",    001053.858,    -086.082,    0031.380,    0004.806,    0070.343
"FRM_AIS_EDR_2231.DAT           ",2005-10-09T10:07:20.82 ,"1/0076932435.50335",    0,   13,   91631,"AIS","B1","B1","B1","B1","PISd",0,0,0,0,"B1", 0,15,   0, 0,    0,"AIS","N/A    ","OK ","OK ",    001043.883,    -086.245,    0035.925,    0005.111,    0070.006
"FRM_AIS_EDR_2231.DAT           ",2005-10-09T10:07:28.37 ,"1/0076932443.20399",    0,   14,   91631,"AIS","B1","B1","B1","B1","PISd",0,0,0,0,"B1", 0,15,   0, 0,    0,"AIS","N/A    ","OK ","OK ",    001033.945,    -086.383,    0040.874,    0005.443,    0069.669
"FRM_AIS_EDR_2231.DAT           ",2005-10-09T10:07:35.91 ,"1/0076932450.55998",    0,   15,   91631,"AIS","B1","B1","B1","B1","PISd",0,0,0,0,"B1", 0,15,   0, 0,    0,"AIS","N/A    ","OK ","OK ",    001024.044,    -086.492,    0046.197,    0005.800,    0069.329
"FRM_AIS_EDR_2231.DAT           ",2005-10-09T10:07:43.45 ,"1/0076932458.26061",    0,   16,   91631,"AIS","B1","B1","B1","B1","PISd",0,0,0,0,"B1", 0,15,   0, 0,    0,"AIS","N/A    ","OK ","OK ",    001014.181,    -086.568,    0051.834,    0006.178,    0068.988
"FRM_AIS_EDR_2231.DAT           ",2005-10-09T10:07:51.00 ,"1/0076932465.61661",    0,   17,   91631,"AIS","B1","B1","B1","B1","PISd",0,0,0,0,"B1", 0,15,   0, 0,    0,"AIS","N/A    ","OK ","OK ",    001004.356,    -086.610,    0057.698,    0006.571,    0068.646
"FRM_AIS_EDR_2231.DAT           ",2005-10-09T10:07:58.54 ,"1/0076932473.31724",    0,   18,   91631,"AIS","B1","B1","B1","B1","PISd",0,0,0,0,"B1", 0,15,   0, 0,    0,"AIS","N/A    ","OK ","OK ",    000994.570,    -086.616,    0063.671,    0006.971,    0068.302
"FRM_AIS_EDR_2231.DAT           ",2005-10-09T10:08:06.08 ,"1/0076932481.01787",    0,   19,   91631,"AIS","B1","B1","B1","B1","PISd",0,0,0,0,"B1", 0,15,   0, 0,    0,"AIS","N/A    ","OK ","OK ",    000984.824,    -086.584,    0069.624,    0007.370,    0067.957
"FRM_AIS_EDR_2231.DAT           ",2005-10-09T10:08:13.63 ,"1/0076932488.37387",    0,   20,   91631,"AIS","B1","B1","B1","B1","PISd",0,0,0,0,"B1", 0,15,   0, 0,    0,"AIS","N/A    ","OK ","OK ",    000975.118,    -086.516,    0075.431,    0007.759,    0067.610
"FRM_AIS_EDR_2231.DAT           ",2005-10-09T10:08:21.17 ,"1/0076932496.07450",    0,   21,   91631,"AIS","B1","B1","B1","B1","PISd",0,0,0,0,"B1", 0,15,   0, 0,    0,"AIS","N/A    ","OK ","OK ",    000965.452,    -086.412,    0080.982,    0008.131,    0067.262
"FRM_AIS_EDR_2231.DAT           ",2005-10-09T10:08:28.71 ,"1/0076932503.43049",    0,   22,   91631,"AIS","B1","B1","B1","B1","PISd",0,0,0,0,"B1", 0,15,   0, 0,    0,"AIS","N/A    ","OK ","OK ",    000955.827,    -086.276,    0086.198,    0008.481,    0066.912
"FRM_AIS_EDR_2231.DAT           ",2005-10-09T10:08:36.26 ,"1/0076932511.13113",    0,   23,   91631,"AIS","B1","B1","B1","B1","PISd",0,0,0,0,"B1", 0,15,   0, 0,    0,"AIS","N/A    ","OK ","OK ",    000946.245,    -086.111,    0091.028,    0008.805,    0066.561
"FRM_AIS_EDR_2231.DAT           ",2005-10-09T10:08:43.80 ,"1/0076932518.48712",    0,   24,   91631,"AIS","B1","B1","B1","B1","PISd",0,0,0,0,"B1", 0,15,   0, 0,    0,"AIS","N/A    ","OK ","OK ",    000936.704,    -085.919,    0095.451,    0009.102,    0066.208
"FRM_AIS_EDR_2231.DAT           ",2005-10-09T10:08:51.34 ,"1/0076932526.18775",    0,   25,   91631,"AIS","B1","B1","B1","B1","PISd",0,0,0,0,"B1", 0,15,   0, 0,    0,"AIS","N/A    ","OK ","OK ",    000927.206,    -085.703,    0099.470,    0009.372,    0065.854
"FRM_AIS_EDR_2231.DAT           ",2005-10-09T10:08:58.89 ,"1/0076932533.54375",    0,   26,   91631,"AIS","B1","B1","B1","B1","PISd",0,0,0,0,"B1", 0,15,   0, 0,    0,"AIS","N/A    ","OK ","OK ",    000917.752,    -085.468,    0103.102,    0009.616,    0065.498
"FRM_AIS_EDR_2231.DAT           ",2005-10-09T10:09:06.43 ,"1/0076932541.24438",    0,   27,   91631,"AIS","B1","B1","B1","B1","PISd",0,0,0,0,"B1", 0,15,   0, 0,    0,"AIS","N/A    ","OK ","OK ",    000908.341,    -085.214,    0106.375,    0009.836,    0065.140
"FRM_AIS_EDR_2231.DAT           ",2005-10-09T10:09:13.97 ,"1/0076932548.60037",    0,   28,   91631,"AIS","B1","B1","B1","B1","PISd",0,0,0,0,"B1", 0,15,   0, 0,    0,"AIS","N/A    ","OK ","OK ",    000898.975,    -084.945,    0109.320,    0010.034,    0064.781
"FRM_AIS_EDR_2231.DAT           ",2005-10-09T10:09:21.51 ,"1/0076932556.30101",    0,   29,   91631,"AIS","B1","B1","B1","B1","PISd",0,0,0,0,"B1", 0,15,   0, 0,    0,"AIS","N/A    ","OK ","OK ",    000889.654,    -084.663,    0111.970,    0010.213,    0064.421
"FRM_AIS_EDR_2231.DAT           ",2005-10-09T10:09:29.06 ,"1/0076932564.00164",    0,   30,   91631,"AIS","B1","B1","B1","B1","PISd",0,0,0,0,"B1", 0,15,   0, 0,    0,"AIS","N/A    ","OK ","OK ",    000880.379,    -084.369,    0114.356,    0010.374,    0064.059
"FRM_AIS_EDR_2231.DAT           ",2005-10-09T10:09:36.60 ,"1/0076932571.35763",    0,   31,   91631,"AIS","B1","B1","B1","B1","PISd",0,0,0,0,"B1", 0,15,   0, 0,    0,"AIS","N/A    ","OK ","OK ",    000871.150,    -084.065,    0116.509,    0010.520,    0063.695
"FRM_AIS_EDR_2231.DAT           ",2005-10-09T10:09:44.14 ,"1/0076932579.05827",    0,   32,   91631,"AIS","B1","B1","B1","B1","PISd",0,0,0,0,"B1", 0,15,   0, 0,    0,"AIS","N/A    ","OK ","OK ",    000861.968,    -083.751,    0118.455,    0010.652,    0063.330
"FRM_AIS_EDR_2231.DAT           ",2005-10-09T10:09:51.69 ,"1/0076932586.41426",    0,   33,   91631,"AIS","B1","B1","B1","B1","PISd",0,0,0,0,"B1", 0,15,   0, 0,    0,"AIS","N/A    ","OK ","OK ",    000852.833,    -083.430,    0120.219,    0010.771,    0062.963
"FRM_AIS_EDR_2231.DAT           ",2005-10-09T10:09:59.23 ,"1/0076932594.11490",    0,   34,   91631,"AIS","B1","B1","B1","B1","PISd",0,0,0,0,"B1", 0,15,   0, 0,    0,"AIS","N/A    ","OK ","OK ",    000843.746,    -083.101,    0121.821,    0010.880,    0062.595
"FRM_AIS_EDR_2231.DAT           ",2005-10-09T10:10:06.77 ,"1/0076932601.47089",    0,   35,   91631,"AIS","B1","B1","B1","B1","PISd",0,0,0,0,"B1", 0,15,   0, 0,    0,"AIS","N/A    ","OK ","OK ",    000834.708,    -082.766,    0123.280,    0010.979,    0062.225
"FRM_AIS_EDR_2231.DAT           ",2005-10-09T10:10:14.32 ,"1/0076932609.17152",    0,   36,   91631,"AIS","B1","B1","B1","B1","PISd",0,0,0,0,"B1", 0,15,   0, 0,    0,"AIS","N/A    ","OK ","OK ",    000825.719,    -082.425,    0124.613,    0011.070,    0061.854
"FRM_AIS_EDR_2231.DAT           ",2005-10-09T10:10:21.86 ,"1/0076932616.52752",    0,   37,   91631,"AIS","B1","B1","B1","B1","PISd",0,0,0,0,"B1", 0,15,   0, 0,    0,"AIS","N/A    ","OK ","OK ",    000816.780,    -082.078,    0125.833,    0011.154,    0061.481
"FRM_AIS_EDR_2231.DAT           ",2005-10-09T10:10:29.40 ,"1/0076932624.22815",    0,   38,   91631,"AIS","B1","B1","B1","B1","PISd",0,0,0,0,"B1", 0,15,   0, 0,    0,"AIS","N/A    ","OK ","OK ",    000807.892,    -081.727,    0126.954,    0011.230,    0061.107
"FRM_AIS_EDR_2231.DAT           ",2005-10-09T10:10:36.95 ,"1/0076932631.58414",    0,   39,   91631,"AIS","B1","B1","B1","B1","PISd",0,0,0,0,"B1", 0,15,   0, 0,    0,"AIS","N/A    ","OK ","OK ",    000799.054,    -081.371,    0127.985,    0011.301,    0060.731
"FRM_AIS_EDR_2231.DAT           ",2005-10-09T10:10:44.49 ,"1/0076932639.28478",    0,   40,   91631,"AIS","B1","B1","B1","B1","PISd",0,0,0,0,"B1", 0,15,   0, 0,    0,"AIS","N/A    ","OK ","OK ",    000790.268,    -081.011,    0128.936,    0011.367,    0060.354
"FRM_AIS_EDR_2231.DAT           ",2005-10-09T10:10:52.03 ,"1/0076932646.64077",    0,   41,   91631,"AIS","B1","B1","B1","B1","PISd",0,0,0,0,"B1", 0,15,   0, 0,    0,"AIS","N/A    ","OK ","OK ",    000781.535,    -080.647,    0129.816,    0011.427,    0059.975
"FRM_AIS_EDR_2231.DAT           ",2005-10-09T10:10:59.58 ,"1/0076932654.34140",    0,   42,   91631,"AIS","B1","B1","B1","B1","PISd",0,0,0,0,"B1", 0,15,   0, 0,    0,"AIS","N/A    ","OK ","OK ",    000772.854,    -080.280,    0130.631,    0011.484,    0059.594
"FRM_AIS_EDR_2231.DAT           ",2005-10-09T10:11:07.12 ,"1/0076932662.04204",    0,   43,   91631,"AIS","B1","B1","B1","B1","PISd",0,0,0,0,"B1", 0,15,   0, 0,    0,"AIS","N/A    ","OK ","OK ",    000764.227,    -079.908,    0131.388,    0011.536,    0059.212
"FRM_AIS_EDR_2231.DAT           ",2005-10-09T10:11:14.66 ,"1/0076932669.39803",    0,   44,   91631,"AIS","B1","B1","B1","B1","PISd",0,0,0,0,"B1", 0,15,   0, 0,    0,"AIS","N/A    ","OK ","OK ",    000755.654,    -079.534,    0132.093,    0011.585,    0058.829
"FRM_AIS_EDR_2231.DAT           ",2005-10-09T10:11:22.21 ,"1/0076932677.09866",    0,   45,   91631,"AIS","B1","B1","B1","B1","PISd",0,0,0,0,"B1", 0,15,   0, 0,    0,"AIS","N/A    ","OK ","OK ",    000747.136,    -079.156,    0132.750,    0011.631,    0058.443
"FRM_AIS_EDR_2231.DAT           ",2005-10-09T10:11:29.75 ,"1/0076932684.45466",    0,   46,   91631,"AIS","B1","B1","B1","B1","PISd",0,0,0,0,"B1", 0,15,   0, 0,    0,"AIS","N/A    ","OK ","OK ",    000738.673,    -078.776,    0133.363,    0011.674,    0058.057
"FRM_AIS_EDR_2231.DAT           ",2005-10-09T10:11:37.29 ,"1/0076932692.15529",    0,   47,   91631,"AIS","B1","B1","B1","B1","PISd",0,0,0,0,"B1", 0,15,   0, 0,    0,"AIS","N/A    ","OK ","OK ",    000730.266,    -078.393,    0133.938,    0011.714,    0057.669
"FRM_AIS_EDR_2231.DAT           ",2005-10-09T10:11:44.84 ,"1/0076932699.51128",    0,   48,   91631,"AIS","B1","B1","B1","B1","PISd",0,0,0,0,"B1", 0,15,   0, 0,    0,"AIS","N/A    ","OK ","OK ",    000721.916,    -078.006,    0134.476,    0011.752,    0057.279
"FRM_AIS_EDR_2231.DAT           ",2005-10-09T10:11:52.38 ,"1/0076932707.21192",    0,   49,   91631,"AIS","B1","B1","B1","B1","PISd",0,0,0,0,"B1", 0,15,   0, 0,    0,"AIS","N/A    ","OK ","OK ",    000713.623,    -077.618,    0134.981,    0011.788,    0056.888
"FRM_AIS_EDR_2231.DAT           ",2005-10-09T10:11:59.92 ,"1/0076932714.56791",    0,   50,   91631,"AIS","B1","B1","B1","B1","PISd",0,0,0,0,"B1", 0,15,   0, 0,    0,"AIS","N/A    ","OK ","OK ",    000705.389,    -077.226,    0135.457,    0011.822,    0056.495
"FRM_AIS_EDR_2231.DAT           ",2005-10-09T10:12:07.47 ,"1/0076932722.26854",    0,   51,   91631,"AIS","B1","B1","B1","B1","PISd",0,0,0,0,"B1", 0,15,   0, 0,    0,"AIS","N/A    ","OK ","OK ",    000697.212,    -076.833,    0135.904,    0011.854,    0056.101
"FRM_AIS_EDR_2231.DAT           ",2005-10-09T10:12:15.01 ,"1/0076932729.62454",    0,   52,   91631,"AIS","B1","B1","B1","B1","PISd",0,0,0,0,"B1", 0,15,   0, 0,    0,"AIS","N/A    ","OK ","OK ",    000689.095,    -076.436,    0136.326,    0011.884,    0055.705
"FRM_AIS_EDR_2231.DAT           ",2005-10-09T10:12:22.55 ,"1/0076932737.32517",    0,   53,   91631,"AIS","B1","B1","B1","B1","PISd",0,0,0,0,"B1", 0,15,   0, 0,    0,"AIS","N/A    ","OK ","OK ",    000681.038,    -076.038,    0136.724,    0011.912,    0055.308
"FRM_AIS_EDR_2231.DAT           ",2005-10-09T10:12:30.10 ,"1/0076932745.02580",    0,   54,   91631,"AIS","B1","B1","B1","B1","PISd",0,0,0,0,"B1", 0,15,   0, 0,    0,"AIS","N/A    ","OK ","OK ",    000673.042,    -075.637,    0137.100,    0011.939,    0054.909
"FRM_AIS_EDR_2231.DAT           ",2005-10-09T10:12:37.64 ,"1/0076932752.38180",    0,   55,   91631,"AIS","B1","B1","B1","B1","PISd",0,0,0,0,"B1", 0,15,   0, 0,    0,"AIS","N/A    ","OK ","OK ",    000665.107,    -075.234,    0137.457,    0011.965,    0054.509
"FRM_AIS_EDR_2231.DAT           ",2005-10-09T10:12:45.18 ,"1/0076932760.08243",    0,   56,   91631,"AIS","B1","B1","B1","B1","PISd",0,0,0,0,"B1", 0,15,   0, 0,    0,"AIS","N/A    ","OK ","OK ",    000657.233,    -074.829,    0137.794,    0011.990,    0054.107
"FRM_AIS_EDR_2231.DAT           ",2005-10-09T10:12:52.72 ,"1/0076932767.43842",    0,   57,   91631,"AIS","B1","B1","B1","B1","PISd",0,0,0,0,"B1", 0,15,   0, 0,    0,"AIS","N/A    ","OK ","OK ",    000649.423,    -074.421,    0138.114,    0012.013,    0053.704
"FRM_AIS_EDR_2231.DAT           ",2005-10-09T10:13:00.27 ,"1/0076932775.13906",    0,   58,   91631,"AIS","B1","B1","B1","B1","PISd",0,0,0,0,"B1", 0,15,   0, 0,    0,"AIS","N/A    ","OK ","OK ",    000641.675,    -074.012,    0138.418,    0012.036,    0053.299
"FRM_AIS_EDR_2231.DAT           ",2005-10-09T10:13:07.81 ,"1/0076932782.49505",    0,   59,   91631,"AIS","B1","B1","B1","B1","PISd",0,0,0,0,"B1", 0,15,   0, 0,    0,"AIS","N/A    ","OK ","OK ",    000633.991,    -073.600,    0138.707,    0012.057,    0052.893
"FRM_AIS_EDR_2231.DAT           ",2005-10-09T10:13:15.35 ,"1/0076932790.19568",    0,   60,   91631,"AIS","B1","B1","B1","B1","PISd",0,0,0,0,"B1", 0,15,   0, 0,    0,"AIS","N/A    ","OK ","OK ",    000626.372,    -073.187,    0138.981,    0012.077,    0052.485
"FRM_AIS_EDR_2231.DAT           ",2005-10-09T10:13:22.90 ,"1/0076932797.55168",    0,   61,   91631,"AIS","B1","B1","B1","B1","PISd",0,0,0,0,"B1", 0,15,   0, 0,    0,"AIS","N/A    ","OK ","OK ",    000618.818,    -072.771,    0139.243,    0012.097,    0052.076
"FRM_AIS_EDR_2231.DAT           ",2005-10-09T10:13:30.44 ,"1/0076932805.25231",    0,   62,   91631,"AIS","B1","B1","B1","B1","PISd",0,0,0,0,"B1", 0,15,   0, 0,    0,"AIS","N/A    ","OK ","OK ",    000611.329,    -072.354,    0139.492,    0012.115,    0051.666
"FRM_AIS_EDR_2231.DAT           ",2005-10-09T10:13:37.98 ,"1/0076932812.60830",    0,   63,   91631,"AIS","B1","B1","B1","B1","PISd",0,0,0,0,"B1", 0,15,   0, 0,    0,"AIS","N/A    ","OK ","OK ",    000603.907,    -071.934,    0139.729,    0012.133,    0051.254
"FRM_AIS_EDR_2231.DAT           ",2005-10-09T10:13:45.53 ,"1/0076932820.30894",    0,   64,   91631,"AIS","B1","B1","B1","B1","PISd",0,0,0,0,"B1", 0,15,   0, 0,    0,"AIS","N/A    ","OK ","OK ",    000596.553,    -071.513,    0139.956,    0012.150,    0050.841
"FRM_AIS_EDR_2231.DAT           ",2005-10-09T10:13:53.07 ,"1/0076932828.00957",    0,   65,   91631,"AIS","B1","B1","B1","B1","PISd",0,0,0,0,"B1", 0,15,   0, 0,    0,"AIS","N/A    ","OK ","OK ",    000589.266,    -071.090,    0140.172,    0012.167,    0050.426
"FRM_AIS_EDR_2231.DAT           ",2005-10-09T10:14:00.61 ,"1/0076932835.36556",    0,   66,   91631,"AIS","B1","B1","B1","B1","PISd",0,0,0,0,"B1", 0,15,   0, 0,    0,"AIS","N/A    ","OK ","OK ",    000582.047,    -070.665,    0140.379,    0012.182,    0050.010
"FRM_AIS_EDR_2231.DAT           ",2005-10-09T10:14:08.16 ,"1/0076932843.06620",    0,   67,   91631,"AIS","B1","B1","B1","B1","PISd",0,0,0,0,"B1", 0,15,   0, 0,    0,"AIS","N/A    ","OK ","OK ",    000574.898,    -070.238,    0140.577,    0012.198,    0049.592
"FRM_AIS_EDR_2231.DAT           ",2005-10-09T10:14:15.70 ,"1/0076932850.42219",    0,   68,   91631,"AIS","B1","B1","B1","B1","PISd",0,0,0,0,"B1", 0,15,   0, 0,    0,"AIS","N/A    ","OK ","OK ",    000567.818,    -069.809,    0140.766,    0012.213,    0049.173
"FRM_AIS_EDR_2231.DAT           ",2005-10-09T10:14:23.24 ,"1/0076932858.12282",    0,   69,   91631,"AIS","B1","B1","B1","B1","PISd",0,0,0,0,"B1", 0,15,   0, 0,    0,"AIS","N/A    ","OK ","OK ",    000560.809,    -069.379,    0140.948,    0012.227,    0048.753
"FRM_AIS_EDR_2231.DAT           ",2005-10-09T10:14:30.79 ,"1/0076932865.47882",    0,   70,   91631,"AIS","B1","B1","B1","B1","PISd",0,0,0,0,"B1", 0,15,   0, 0,    0,"AIS","N/A    ","OK ","OK ",    000553.871,    -068.946,    0141.121,    0012.240,    0048.331
"FRM_AIS_EDR_2231.DAT           ",2005-10-09T10:14:38.33 ,"1/0076932873.17945",    0,   71,   91631,"AIS","B1","B1","B1","B1","PISd",0,0,0,0,"B1", 0,15,   0, 0,    0,"AIS","N/A    ","OK ","OK ",    000547.005,    -068.512,    0141.288,    0012.253,    0047.908
"FRM_AIS_EDR_2231.DAT           ",2005-10-09T10:14:45.87 ,"1/0076932880.53544",    0,   72,   91631,"AIS","B1","B1","B1","B1","PISd",0,0,0,0,"B1", 0,15,   0, 0,    0,"AIS","N/A    ","OK ","OK ",    000540.211,    -068.077,    0141.448,    0012.266,    0047.484
"FRM_AIS_EDR_2231.DAT           ",2005-10-09T10:14:53.42 ,"1/0076932888.23608",    0,   73,   91631,"AIS","B1","B1","B1","B1","PISd",0,0,0,0,"B1", 0,15,   0, 0,    0,"AIS","N/A    ","OK ","OK ",    000533.490,    -067.639,    0141.601,    0012.278,    0047.058
"FRM_AIS_EDR_2231.DAT           ",2005-10-09T10:15:00.96 ,"1/0076932895.59207",    0,   74,   91631,"AIS","B1","B1","B1","B1","PISd",0,0,0,0,"B1", 0,15,   0, 0,    0,"AIS","N/A    ","OK ","OK ",    000526.843,    -067.200,    0141.748,    0012.290,    0046.631
"FRM_AIS_EDR_2231.DAT           ",2005-10-09T10:15:08.50 ,"1/0076932903.29270",    0,   75,   91631,"AIS","B1","B1","B1","B1","PISd",0,0,0,0,"B1", 0,15,   0, 0,    0,"AIS","N/A    ","OK ","OK ",    000520.271,    -066.760,    0141.889,    0012.302,    0046.203
"FRM_AIS_EDR_2231.DAT           ",2005-10-09T10:15:16.05 ,"1/0076932910.64870",    0,   76,   91631,"AIS","B1","B1","B1","B1","PISd",0,0,0,0,"B1", 0,15,   0, 0,    0,"AIS","N/A    ","OK ","OK ",    000513.773,    -066.317,    0142.025,    0012.312,    0045.773
"FRM_AIS_EDR_2231.DAT           ",2005-10-09T10:15:23.59 ,"1/0076932918.34933",    0,   77,   91631,"AIS","B1","B1","B1","B1","PISd",0,0,0,0,"B1", 0,15,   0, 0,    0,"AIS","N/A    ","OK ","OK ",    000507.352,    -065.873,    0142.156,    0012.323,    0045.343
"FRM_AIS_EDR_2231.DAT           ",2005-10-09T10:15:31.13 ,"1/0076932926.04996",    0,   78,   91631,"AIS","B1","B1","B1","B1","PISd",0,0,0,0,"B1", 0,15,   0, 0,    0,"AIS","N/A    ","OK ","OK ",    000501.007,    -065.428,    0142.281,    0012.334,    0044.911
"FRM_AIS_EDR_2231.DAT           ",2005-10-09T10:15:38.68 ,"1/0076932933.40596",    0,   79,   91631,"AIS","B1","B1","B1","B1","PISd",0,0,0,0,"B1", 0,15,   0, 0,    0,"AIS","N/A    ","OK ","OK ",    000494.738,    -064.981,    0142.402,    0012.344,    0044.477
"FRM_AIS_EDR_2231.DAT           ",2005-10-09T10:15:46.22 ,"1/0076932941.10659",    0,   80,   91631,"AIS","B1","B1","B1","B1","PISd",0,0,0,0,"B1", 0,15,   0, 0,    0,"AIS","N/A    ","OK ","OK ",    000488.548,    -064.532,    0142.518,    0012.354,    0044.043
"FRM_AIS_EDR_2231.DAT           ",2005-10-09T10:15:53.76 ,"1/0076932948.46258",    0,   81,   91631,"AIS","B1","B1","B1","B1","PISd",0,0,0,0,"B1", 0,15,   0, 0,    0,"AIS","N/A    ","OK ","OK ",    000482.435,    -064.082,    0142.630,    0012.363,    0043.607
"FRM_AIS_EDR_2231.DAT           ",2005-10-09T10:16:01.30 ,"1/0076932956.16322",    0,   82,   91631,"AIS","B1","B1","B1","B1","PISd",0,0,0,0,"B1", 0,15,   0, 0,    0,"AIS","N/A    ","OK ","OK ",    000476.402,    -063.630,    0142.738,    0012.373,    0043.171
"FRM_AIS_EDR_2231.DAT           ",2005-10-09T10:16:08.85 ,"1/0076932963.51921",    0,   83,   91631,"AIS","B1","B1","B1","B1","PISd",0,0,0,0,"B1", 0,15,   0, 0,    0,"AIS","N/A    ","OK ","OK ",    000470.449,    -063.177,    0142.842,    0012.381,    0042.733
"FRM_AIS_EDR_2231.DAT           ",2005-10-09T10:16:16.39 ,"1/0076932971.21984",    0,   84,   91631,"AIS","B1","B1","B1","B1","PISd",0,0,0,0,"B1", 0,15,   0, 0,    0,"AIS","N/A    ","OK ","OK ",    000464.575,    -062.722,    0142.942,    0012.390,    0042.294
"FRM_AIS_EDR_2231.DAT           ",2005-10-09T10:16:23.93 ,"1/0076932978.57584",    0,   85,   91631,"AIS","B1","B1","B1","B1","PISd",0,0,0,0,"B1", 0,15,   0, 0,    0,"AIS","N/A    ","OK ","OK ",    000458.783,    -062.266,    0143.039,    0012.399,    0041.854
"FRM_AIS_EDR_2231.DAT           ",2005-10-09T10:16:31.48 ,"1/0076932986.27647",    0,   86,   91631,"AIS","B1","B1","B1","B1","PISd",0,0,0,0,"B1", 0,15,   0, 0,    0,"AIS","N/A    ","OK ","OK ",    000453.072,    -061.808,    0143.132,    0012.407,    0041.412
"FRM_AIS_EDR_2231.DAT           ",2005-10-09T10:16:39.02 ,"1/0076932993.63246",    0,   87,   91631,"AIS","B1","B1","B1","B1","PISd",0,0,0,0,"B1", 0,15,   0, 0,    0,"AIS","N/A    ","OK ","OK ",    000447.443,    -061.349,    0143.222,    0012.415,    0040.970
"FRM_AIS_EDR_2231.DAT           ",2005-10-09T10:16:46.56 ,"1/0076933001.33310",    0,   88,   91631,"AIS","B1","B1","B1","B1","PISd",0,0,0,0,"B1", 0,15,   0, 0,    0,"AIS","N/A    ","OK ","OK ",    000441.897,    -060.888,    0143.308,    0012.422,    0040.527
"FRM_AIS_EDR_2231.DAT           ",2005-10-09T10:16:54.11 ,"1/0076933009.03373",    0,   89,   91631,"AIS","B1","B1","B1","B1","PISd",0,0,0,0,"B1", 0,15,   0, 0,    0,"AIS","N/A    ","OK ","OK ",    000436.434,    -060.426,    0143.392,    0012.430,    0040.083
"FRM_AIS_EDR_2231.DAT           ",2005-10-09T10:17:01.65 ,"1/0076933016.38972",    0,   90,   91631,"AIS","B1","B1","B1","B1","PISd",0,0,0,0,"B1", 0,15,   0, 0,    0,"AIS","N/A    ","OK ","OK ",    000431.056,    -059.963,    0143.473,    0012.438,    0039.638